sat.trackr.live / text

‹ back to catalog

BEIDOU-3 M7 (C27)

NORAD 43107 · 2018-003A

PAYLOAD ACTIVE UNKNOWN

§ Identity

Operator
Country
PRC
Launch date
2018-01-11
Launch site
XICLF
Launch vehicle
Mass (kg)
RCS (m²)

Purposes: nav

External: N2YO · Heavens-Above · Gunter

§ Orbital elements

Epoch: 2026-05-24T17:22:57.611424Z

Period
773.25 min
Inclination
54.3496°
Eccentricity
0.0005245
Mean motion
1.86227819 rev/d
Perigee alt
21,513.7 km
Apogee alt
21,543.0 km
Semi-major
27,906.5 km
B*
0.0000e+0
RAAN
303.1323°
Arg perigee
88.6329°
Mean anomaly
271.4059°
Rev number
5,691

§ Raw data

BEIDOU-3 M7 (C27)1 43107U 18003A   26144.72427791 -.00000086  00000+0  00000+0 0  99962 43107  54.3496 303.1323 0005245  88.6329 271.4059  1.86227819 56918

JSON: /api/v1/satellites/43107 · /tle

For live sub-satellite position, see the globe view (requires WebGL).

§ Visibility from observer

Set your observer location to see the next 7 days of passes ≥ 10°. The values pass through the URL so the page stays shareable.

No JS? Fill the form by hand. The geolocation button needs JavaScript.